Printer-friendly version

IAU Minor Planet Center

Minor Planet Center

MPEC 2005-C29 : 2005 CW25

The following Minor Planet Electronic Circular may be linked-to from your own Web pages, but must not otherwise be redistributed electronically.


Read MPEC 2005-C28 Read MPEC 2005-C30


M.P.E.C. 2005-C29                                Issued 2005 Feb. 7, 12:31 UT

     The Minor Planet Electronic Circulars contain information on unusual
         minor planets and routine data on comets.  They are published
   on behalf of Commission 20 of the International Astronomical Union by the
          Minor Planet Center, Smithsonian Astrophysical Observatory,
                          Cambridge, MA 02138, U.S.A.

                  Supported in part by the Brinson Foundation
             Prepared using the Tamkin Foundation Computer Network

                              MPC@CFA.HARVARD.EDU
          URL http://cfa-www.harvard.edu/iau/mpc.html  ISSN 1523-6714

                                   2005 CW25

Observations:
     K05C25W* C2005 02 05.51024 13 15 27.40 +04 14 13.7          19.8   EC029644
     K05C25W  C2005 02 05.52265 13 15 30.01 +04 14 39.8          19.9   EC029644
     K05C25W  C2005 02 05.53314 13 15 32.17 +04 15 01.8          19.3   EC029644
     K05C25W  C2005 02 06.08731 13 17 31.74 +04 34 40.5          19.2 R EC029118
     K05C25W  C2005 02 06.09319 13 17 32.99 +04 34 53.3          19.0 R EC029118
     K05C25W  C2005 02 06.09790 13 17 33.97 +04 35 03.4          19.1 R EC029118
     K05C25W  C2005 02 07.00137 13 20 52.65 +05 08 20.9                 EC029246
     K05C25W  C2005 02 07.00227 13 20 52.87 +05 08 22.9                 EC029246
     K05C25W  C2005 02 07.00307 13 20 52.98 +05 08 23.4                 EC029246
     K05C25W  C2005 02 07.00402 13 20 53.27 +05 08 25.9                 EC029246
     K05C25W  C2005 02 07.00465 13 20 53.36 +05 08 27.1                 EC029246
     K05C25W  C2005 02 07.00537 13 20 53.53 +05 08 28.0                 EC029246
     K05C25W  C2005 02 07.23676 13 21 44.80 +05 17 32.7          18.5 R EC029I77
     K05C25W  C2005 02 07.24200 13 21 45.97 +05 17 44.8          18.7 R EC029I77
     K05C25W  C2005 02 07.24930 13 21 47.56 +05 18 01.4          18.8 R EC029I77

Observer details:
118 Modra.  Observers S. Gajdos, J. Vilagi.  0.6-m f/5.5 reflector + CCD.
246 Klet Observatory-KLENOT.  Observers J. Ticha, M. Tichy.  Measurer M. Tichy.
    1.06-m KLENOT Telescope + CCD.
644 Palomar Mountain/NEAT.  Observers R. Bambery, M. Hicks, K. Lawrence,
    E. Helin, R. Thicksten.  1.2-m Schmidt + CCD.
I77 CEAMIG-REA Observatory, Belo Horizonte.  Observers C. Jacques, E. Pimentel.
    Measurer C. Jacques.  0.30-m f/3.0 Schmidt-Cassegrain + CCD.

Orbital elements:
2005 CW25
Epoch 2005 Jan. 30.0 TT = JDT 2453400.5                 MPC
M 310.94265              (2000.0)            P               Q
n   0.49149990     Peri.  109.51950     -0.15432579     +0.95643014
a   1.5902074      Node   148.20052     -0.98646064     -0.16324353
e   0.4665166      Incl.   28.05585     +0.05548830     -0.24205977
P   2.01           H   18.4           G   0.15
From 15 observations 2005 Feb. 5-7.

Ephemeris:
2005 CW25                a,e,i = 1.59, 0.47, 28                  q = 0.8483
Date    TT    R. A. (2000) Decl.     Delta      r     Elong.  Phase     V
2005 01 30    12 54.01   +00 59.6    0.631    1.396   117.9    38.6    19.7
2005 02 09    13 28.46   +06 27.3    0.512    1.326   121.1    39.6    19.1
2005 02 19    14 13.91   +14 58.5    0.418    1.254   120.6    42.7    18.7
2005 03 01    15 16.66   +26 23.6    0.359    1.182   113.8    50.1    18.4
2005 03 11    16 40.94   +37 41.8    0.344    1.112   101.0    61.3    18.5
2005 03 21    18 17.36   +44 23.1    0.367    1.044    87.1    72.4    18.9
2005 03 31    19 44.23   +45 40.0    0.415    0.981    75.5    80.3    19.3
2005 04 10    20 51.38   +43 47.1    0.474    0.927    67.1    84.8    19.6
2005 04 20    21 42.86   +40 31.1    0.535    0.885    61.5    86.4    19.8
2005 04 30    22 25.31   +36 41.0    0.594    0.858    58.1    85.8    19.9
2005 05 10    23 03.15   +32 39.9    0.650    0.848    56.6    83.6    20.0
2005 05 20    23 38.56   +28 39.0    0.700    0.858    56.7    80.3    20.1
2005 05 30    00 12.42   +24 44.4    0.743    0.886    58.2    76.4    20.2
2005 06 09    00 44.79   +20 57.7    0.778    0.929    60.7    72.4    20.2
2005 06 19    01 15.36   +17 15.6    0.805    0.983    64.1    68.4    20.3
2005 06 29    01 43.83   +13 33.3    0.824    1.046    68.4    64.6    20.4
2005 07 09    02 09.89   +09 45.0    0.835    1.114    73.2    60.9    20.4
2005 07 19    02 33.17   +05 44.6    0.840    1.185    78.7    57.3    20.5
2005 07 29    02 53.38   +01 27.9    0.840    1.257    84.7    53.6    20.5
2005 08 08    03 10.12   -03 08.5    0.836    1.328    91.3    49.7    20.5
2005 08 18    03 22.92   -08 05.2    0.831    1.399    98.2    45.7    20.5
2005 08 28    03 31.27   -13 18.6    0.829    1.468   105.5    41.5    20.5
2005 09 07    03 34.57   -18 40.6    0.832    1.535   112.8    37.3    20.4
2005 09 17    03 32.31   -23 55.4    0.843    1.599   119.6    33.1    20.4
2005 09 27    03 24.36   -28 41.5    0.866    1.661   125.4    29.5    20.5
2005 10 07    03 11.19   -32 35.2    0.903    1.721   129.4    26.7    20.6
2005 10 17    02 54.39   -35 15.7    0.956    1.777   131.1    25.0    20.7
2005 10 27    02 36.38   -36 34.2    1.025    1.831   130.2    24.5    20.9
2005 11 06    02 19.72   -36 34.6    1.109    1.882   127.2    24.8    21.1
2005 11 16    02 06.42   -35 30.6    1.207    1.930   122.7    25.5    21.4
2005 11 26    01 57.36   -33 40.2    1.317    1.975   117.3    26.4    21.7
2005 12 06    01 52.57   -31 19.4    1.437    2.017   111.4    27.0    21.9
2005 12 16    01 51.66   -28 41.0    1.564    2.057   105.4    27.5    22.2

Timothy B. Spahr             (C) Copyright 2005 MPC           M.P.E.C. 2005-C29

Read MPEC 2005-C28 Read MPEC 2005-C30


Our Web policy. Index to the CBAT/MPC/ICQ pages.


Valid HTML 4.01!